Weather Roundup
Issued by NWS Chicago, IL

Home | Current Version | Previous Version | Text Only | Print | Product List | Glossary On
Versions: 1 2 3 4 5 6 7 8 9 10 11 12 13 14 15 16 17 18 19 20 21 22 23 24 25 26 27 28 29 30 31 32 33 34 35 36 37 38 39 40 41 42 43 44 45 46 47 48 49 50
000
NZUS59 KLOT 221412
HRRLOT

CHICAGO AREA WEATHER ROUNDUP
NATIONAL WEATHER SERVICE CHICAGO/ROMEOVILLE IL
900 AM CDT FRI MAY 22 2015

NOTE: "FAIR" INDICATES FEW OR NO CLOUDS BELOW 12,000 FEET WITH NO
SIGNIFICANT WEATHER AND/OR OBSTRUCTIONS TO VISIBILITY.

* THESE STATIONS ARE NOT UNDER NWS QUALITY CONTROL. THEY ALSO MAY NOT
  REPORT WEATHER SUCH AS PRECIPITATION OR FOG.

ILZ005-006-012>014-019>023-221500-
NORTHEAST ILLINOIS

CITY           SKY/WX    TMP DP  RH WIND       PRES   REMARKS
OHARE          SUNNY     57  37  47 NE9       30.19R
MIDWAY         SUNNY     59  44  57 E8        30.19R
AURORA         SUNNY     61  40  45 E8        30.19R
LANSING*       SUNNY     59  46  61 N5        30.18R
JOLIET*        SUNNY     62  48  61 CALM      30.18R
WAUKEGAN       SUNNY     54  34  46 NE7       30.21R
DUPAGE AIRPORT SUNNY     59  40  49 E9        30.18R
WHEELING       SUNNY     55  36  48 NE9       30.22R
KANKAKEE*      SUNNY     62  48  60 N6        30.18R
MORRIS*        SUNNY     60  46  61 E6        30.16R
LEWIS AIRPORT* SUNNY     60  44  55 E5        30.18R
NORTHERLY IS     N/A     51  42  71 N10         N/A
$$

WIZ051-052-058>065-066-070>072-221500-
SOUTHEAST WISCONSIN

CITY           SKY/WX    TMP DP  RH WIND       PRES   REMARKS
MILWAUKEE      SUNNY     52  34  50 NE10      30.23R
KENOSHA*       SUNNY     56  31  38 E9        30.22R
RACINE*        SUNNY     52  35  52 N8        30.24R
BURLINGTON     SUNNY     55  29  37 E8        30.21R
WAUKESHA       SUNNY     54  28  37 E3        30.23R
WEST BEND      SUNNY     54  27  35 E5        30.22R
$$

INZ001>003-010>013-019-020-221500-
NORTHWEST INDIANA

CITY           SKY/WX    TMP DP  RH WIND       PRES   REMARKS
GARY*          SUNNY     57  46  67 N8        30.19R
MICHIGAN CITY* NOT AVBL
RENSSELAER*    NOT AVBL
VALPARAISO     SUNNY     61  47  59 E5        30.17R
$$

LMZ740>746-221500-
SOUTHERN LAKE MICHIGAN

STATION/POSITION TIME  SKY/WX   TEMP WIND        PRES    VSBY
                                AIR  DIR/SP/G
                 (UTC)          (F)  (DEG/KT/KT) (MB)    (MI)
HARRISON CRIB    1300            47  350/ 13/ 15   N/A
BURNHAM HARBOR   1400            51   10/ 11/ 13   N/A
CALUMET HARBOR   1300            51  350/  5/  7   N/A
BURNS HARBOR     1300            54   40/  5/  5 1021.7R
MICHIGAN CITY    1300            55   30/  4/  5   N/A
$$

ABBREVIATIONS USED IN REMARKS
   TC - TEMPERATURE IN CELSIUS
  WCI - WIND CHILL INDEX
   HX - HEAT INDEX
  VSB - VISIBILITY
$$



USA.gov is the U.S. government's official web portal to all federal, state and local government web resources and services.